DECAYED

FENGYUN 1C DEB, 30972 (Decayed)

Orbit data source: Space-Track

FENGYUN 1C DEB, 30972 was space debris in LEO originally from a launch on Mon, 10 May 1999 UTC launched from the Taiyaun Space Center, China (TSC). Fengyun 1C debris stems from the Chinese weather satellite Fengyun-1C, which was intentionally destroyed by a Chinese anti-satellite missile in 2007. This event dramatically increased the amount of space debris, with thousands of trackable fragments posing hazards to satellites and human spaceflight. The Fengyun 1C debris cloud has become a focal point in discussions about space sustainability and the need for international regulations to prevent the creation of new debris.

Not visible in the next 10 days
Identifier
30972, 1999-025BBN
Orbit
Decayed
Country
Flag of CNCN / PRC
Related business
Manufacturer
Unknown
Mission
Decayed spacecraft
Bus & Motor
Unknown
Mass
Unknown
Launch date (UTC)
1999-05-10 (27 years ago)
Launch vehicle
Unknown
Launch site
Taiyaun Space Center, China (TSC)
Object type
Payload
Rocket body
Debris
Shape & HBR
Unknown shape, 0.1 m
Radar Cross Section
Medium (>0.1 m² and <1 m²)

Expand to show TLE details & history
Last TLE update: 1 year ago

TLE from 1 year ago
0 FENGYUN 1C DEB
1 30972U 99025BBN 25176.42036988  .18435000  33984-5  10392-1 0  9996
2 30972  98.8532 346.0425 0022824 295.2352  64.6566 16.18540546951422
Epoch: 2025-06-25T10:05Z
TLE epoch observation values (Epoch: 2025-06-25T10:05:19.957Z)
Latitude
0.00002°
Longitude
-79.09285°
Altitude
220.27 km
Speed
7.778 km/s
True Right ascension
23h 04m 10s
True Declination
0° 00' 00"
Sunlit
Object was in full shadow at epoch
Visualization orbit readout
Latitude
Unknown
Longitude
Unknown
Altitude
Unknown
Speed
Unknown
Apparent Right ascension
Unknown
Apparent Declination
Unknown
Sunlit
N/A
Visualization observer readout
Local Sidereal Time
06:48:44
Azimuth
Unknown
Elevation
Unknown
Doppler factor
Unknown
Orbital elements
Apogee altitude
235.484 km
Perigee altitude
205.363 km
Semi-major axis
6,598.561 km
Eccentricity
0.00228
Inclination
98.8532°
RAAN
346.0425°
Arg. of periapsis
295.2352°
True anomaly
64.89326°
Mean anomaly
64.6566°
Eccentric anomaly
64.7749°
Mean motion
4.0492 °/min
Orbital period
88.91 mins
BSTAR
0.010392
Loading maneuver chart data...
Computing Atmospheric mass density...

Documentation

Showing up to 5 results
|